Location: Cluj-Napoca
(46.7712°N, 23.6236°E)
Time: 09:49:55
(UTC+02:00)

First-Move - Pass Details

Date: 01 December 2021
Orbit: 574 x 664 km, 97.6° (Epoch: 20 January)

Event Time Altitude Azimuth Distance (km) Brightness Sun altitude
Rises 04:54:11 0° 14° (NNE) 2,990 ? -29.3°
Reaches altitude 10° 04:56:25 10° 16° (NNE) 2,082 ? -28.9°
Enters shadow 04:57:50 20° 18° (NNE) 1,518 ? -28.7°
